Regional Weather Roundup
Issued by NWS

Home | Current Version | Previous Version | Graphics & Text | Print | Product List | Glossary On
Versions: 1 2 3 4 5 6 7 8 9 10 11 12 13 14 15 16 17 18 19 20 21 22 23 24 25 26 27 28 29 30 31 32 33 34 35 36 37 38 39 40 41 42 43 44 45 46 47 48 49 50
000
ASUS44 KMEG 232000
RWRTN
TENNESSEE HOURLY STATE WEATHER ROUNDUP
NATIONAL WEATHER SERVICE MEMPHIS TN
300 PM CDT SAT SEP 23 2017

TNZ002-004-019-021-049-052-054-088>092-232100-
WEST TENNESSEE

CITY           SKY/WX    TMP DP  RH WIND       PRES   REMARKS
MEMPHIS INTL   PTSUNNY   90  67  46 N3        29.98F HX  93
NWS MEMPHIS      N/A     90 N/A N/A MISG        N/A
JACKSON        SUNNY     92  67  43 VRB5      30.00F HX  95
DYERSBURG      SUNNY     91  66  43 VRB6      30.00F HX  93
$$

TNZ008-025-027-028-033-062-065-066-232100-
NORTH MIDDLE TENNESSEE

CITY           SKY/WX    TMP DP  RH WIND       PRES   REMARKS
NASHVILLE      MOSUNNY   89  67  47 E8        30.02F HX  92
CLARKSVILLE    MOSUNNY   89  65  44 E5        30.02F HX  91
SMYRNA         MOSUNNY   88  66  48 N9        30.04F HX  90
CROSSVILLE     PTSUNNY   82  63  52 SE5       30.09F
$$

TNZ061-075-076-078-094-096-097-232100-
SOUTH MIDDLE TENNESSEE

CITY           SKY/WX    TMP DP  RH WIND       PRES   REMARKS
TULLAHOMA      MOSUNNY   86  63  45 E7        30.04F
WINCHESTER     SUNNY     82  70  65 SE5       30.03F
MCMINNVILLE    SUNNY     88  70  55 NE7       30.04F HX  92
$$

TNZ017-018-042-046-047-232100-
NORTHEAST TENNESSEE

CITY           SKY/WX    TMP DP  RH WIND       PRES   REMARKS
TRI CITIES     PTSUNNY   88  59  37 VRB3      30.06F
$$

TNZ012-013-036-069-073-074-232100-
CENTRAL EAST TENNESSEE

CITY           SKY/WX    TMP DP  RH WIND       PRES   REMARKS
KNOXVILLE      MOSUNNY   88  64  44 NE7       30.02F
OAK RIDGE      SUNNY     88  63  43 CALM      30.05F
GATLINBURG     SUNNY     90  55  31 VRB5      30.02F
$$

TNZ083-085-099-232100-
SOUTHEAST TENNESSEE

CITY           SKY/WX    TMP DP  RH WIND       PRES   REMARKS
CHATTANOOGA    MOSUNNY   89  63  41 NW7       30.01F HX  90
$$

SKY/WX REPORTED AS FAIR MEANS FEW OR NO CLOUDS BELOW
12 THOUSAND FEET.





USA.gov is the U.S. government's official web portal to all federal, state and local government web resources and services.